sat.trackr.live / text

‹ back to catalog

STARLINK-30204

NORAD 57472 · 2023-107R

PAYLOAD ACTIVE UNKNOWN

§ Identity

Operator
Country
US
Launch date
2023-07-28
Launch site
AFETR
Launch vehicle
Mass (kg)
RCS (m²)

Purposes: comms

External: N2YO · Heavens-Above · Gunter

§ Orbital elements

Epoch: 2026-05-25T00:54:23.048928Z

Period
94.27 min
Inclination
43.0029°
Eccentricity
0.0001530
Mean motion
15.27573310 rev/d
Perigee alt
482.0 km
Apogee alt
484.1 km
Semi-major
6,861.2 km
B*
1.4073e-4
RAAN
264.9200°
Arg perigee
272.0586°
Mean anomaly
88.0090°
Rev number
15,682

§ Raw data

STARLINK-302041 57472U 23107R   26145.03776677  .00003611  00000+0  14073-3 0  99972 57472  43.0029 264.9200 0001530 272.0586  88.0090 15.27573310156828

JSON: /api/v1/satellites/57472 · /tle

For live sub-satellite position, see the globe view (requires WebGL).

§ Visibility from observer

Set your observer location to see the next 7 days of passes ≥ 10°. The values pass through the URL so the page stays shareable.

No JS? Fill the form by hand. The geolocation button needs JavaScript.